User: anonymous   Login
Location: Unspecified
(0.0000°N, 0.0000°E)
Time: 07:08:24
(UTC+00:00)
Language:

SIRIUS-2 - Orbit

View from above orbital plane
View from above orbital plane
View from above satellite
View from above satellite

Ground track
Ground track

The orbit data is extracted from the following two-line orbital elements,

1 26483U 00051A   21209.39216066 -.00000042  00000-0  00000-0 0  9993
2 26483  65.6393  76.7718 0171038 252.1652 288.8152  1.64981869 38980
Epoch (UTC): 28 July 2021 09:24:42
Eccentricity: 0.0171038
inclination: 65.6393°
perigee height: 23358 km
apogee height: 24393 km
right ascension of ascending node: 76.7718°
argument of perigee: 252.1652°
revolutions per day: 1.64981869
mean anomaly at epoch: 288.8152°
orbit number at epoch: 3898

The dashed part of the orbit path shows where the satellite is in the earth's shadow,  

DLR